START_TIME,STEP,MOV.,M15,t_acc.,M20,t_acc.
1979-07-31 00:00:42.900 ,0,0,0.,24.0,0.,24.0
1979-07-31 00:01:06.900 ,1,1,0.,24.0,0.,24.0
1979-07-31 00:01:30.900 ,1,0,0.,24.0,0.,24.0
1979-07-31 00:01:54.900 ,2,1,0.,24.0,0.,24.0
1979-07-31 00:02:18.900 ,2,0,0.,24.0,0.,24.0
1979-07-31 00:02:42.900 ,3,1,0.,24.0,0.,24.0
1979-07-31 00:03:06.900 ,3,0,0.,24.0,0.,24.0
1979-07-31 00:03:30.900 ,4,1,0.,24.0,0.,24.0
1979-07-31 00:03:54.900 ,4,0,0.,24.0,0.,24.0
1979-07-31 00:04:18.900 ,5,1,0.,24.0,0.,24.0
1979-07-31 00:04:42.900 ,5,0,0.,24.0,0.,24.0
1979-07-31 00:05:06.900 ,6,1,0.,24.0,0.,24.0
1979-07-31 00:05:30.900 ,6,0,0.,24.0,0.,24.0
1979-07-31 00:05:54.900 ,7,1,0.,24.0,0.,24.0
1979-07-31 00:06:18.900 ,7,0,0.,24.0,0.,24.0
1979-07-31 00:06:42.900 ,7,1,0.,24.0,0.,24.0
1979-07-31 00:07:06.900 ,7,0,0.,24.0,0.,24.0
1979-07-31 00:07:30.900 ,6,1,0.,24.0,0.,24.0
1979-07-31 00:07:54.900 ,6,0,0.,24.0,0.,24.0
1979-07-31 00:08:18.900 ,5,1,0.,24.0,0.,24.0
1979-07-31 00:08:42.900 ,5,0,0.,24.0,0.,24.0
1979-07-31 00:09:06.900 ,4,1,0.,24.0,0.,24.0
1979-07-31 00:09:30.900 ,4,0,0.,24.0,0.,24.0
1979-07-31 00:09:54.900 ,3,1,0.,24.0,0.,24.0
1979-07-31 00:10:18.900 ,3,0,0.,24.0,0.,24.0
1979-07-31 00:10:42.900 ,2,1,0.,24.0,0.,24.0
1979-07-31 00:11:06.900 ,2,0,0.,24.0,0.,24.0
1979-07-31 00:11:30.900 ,1,1,0.,24.0,0.,24.0
1979-07-31 00:11:54.900 ,1,0,0.,24.0,0.,24.0
1979-07-31 00:12:18.900 ,0,1,0.,24.0,0.,24.0
1979-07-31 00:12:42.900 ,0,0,0.,24.0,0.,24.0
1979-07-31 00:13:06.900 ,0,1,0.,24.0,0.,24.0
1979-07-31 00:13:30.900 ,0,0,0.,24.0,0.,24.0
1979-07-31 00:13:54.900 ,1,1,0.,24.0,0.,24.0
1979-07-31 00:14:18.900 ,1,0,0.,24.0,0.,24.0
1979-07-31 00:14:42.900 ,2,1,0.,24.0,0.,24.0
1979-07-31 00:15:06.900 ,2,0,0.,24.0,0.,24.0
1979-07-31 00:15:30.900 ,3,1,0.,24.0,0.,24.0
1979-07-31 00:15:54.900 ,3,0,0.,24.0,0.,24.0
1979-07-31 00:16:18.900 ,4,1,0.,24.0,0.,24.0
1979-07-31 00:16:42.900 ,4,0,0.,24.0,0.,24.0
1979-07-31 00:17:06.900 ,5,1,0.,24.0,0.,24.0
1979-07-31 00:17:30.900 ,5,0,0.,24.0,0.,24.0
1979-07-31 00:17:54.900 ,6,1,0.,24.0,0.,24.0
1979-07-31 00:18:18.900 ,6,0,0.,24.0,0.,24.0
1979-07-31 00:18:42.900 ,7,0,0.,24.0,0.,24.0
1979-07-31 00:19:06.900 ,7,0,0.,24.0,0.,24.0
1979-07-31 00:19:30.900 ,3,1,0.,24.0,0.,24.0
1979-07-31 00:19:54.900 ,0,1,0.,24.0,0.,24.0
1979-07-31 00:20:18.900 ,4,1,0.,24.0,0.,24.0
1979-07-31 00:20:42.900 ,7,1,0.,24.0,0.,24.0
1979-07-31 00:21:06.900 ,3,1,0.,24.0,0.,24.0
1979-07-31 00:21:30.900 ,0,1,0.,24.0,0.,24.0
1979-07-31 00:21:54.900 ,4,1,0.,24.0,0.,24.0
1979-07-31 00:22:18.900 ,7,1,0.,24.0,0.,24.0
1979-07-31 00:22:42.900 ,3,1,0.,24.0,0.,24.0
1979-07-31 00:23:06.900 ,0,1,0.,24.0,0.,24.0
1979-07-31 00:23:30.900 ,4,1,0.,24.0,0.,24.0
1979-07-31 00:23:54.900 ,7,1,0.,24.0,0.,24.0
1979-07-31 00:24:18.900 ,3,1,0.,24.0,0.,24.0
1979-07-31 00:24:42.900 ,0,1,0.,24.0,0.,24.0
1979-07-31 00:25:06.900 ,4,1,0.,24.0,0.,24.0
1979-07-31 00:25:30.900 ,7,1,0.,24.0,0.,24.0
1979-07-31 00:25:54.900 ,3,1,0.,24.0,0.,24.0
1979-07-31 00:26:18.900 ,0,1,0.,24.0,0.,24.0
1979-07-31 00:26:42.900 ,4,1,0.,24.0,0.,24.0
1979-07-31 00:27:06.900 ,7,1,0.,24.0,0.,24.0
1979-07-31 00:27:30.900 ,3,1,0.,24.0,0.,24.0
1979-07-31 00:27:54.900 ,0,1,0.,24.0,0.,24.0
1979-07-31 00:28:18.900 ,4,1,0.,24.0,0.,24.0
1979-07-31 00:28:42.900 ,7,1,0.,24.0,0.,24.0
1979-07-31 00:29:06.900 ,3,1,0.,24.0,0.,24.0
1979-07-31 00:29:30.900 ,0,1,1.,24.0,0.,24.0
1979-07-31 00:29:54.900 ,0,0,0.,24.0,0.,24.0
1979-07-31 00:30:18.900 ,0,0,0.,24.0,0.,24.0
1979-07-31 00:30:42.900 ,5,1,0.,24.0,0.,24.0
1979-07-31 00:31:06.900 ,5,0,0.,24.0,0.,24.0
1979-07-31 00:31:30.900 ,4,1,0.,24.0,0.,24.0
1979-07-31 00:31:54.900 ,4,0,0.,24.0,0.,24.0
1979-07-31 00:32:18.900 ,3,1,0.,24.0,0.,24.0
1979-07-31 00:32:42.900 ,3,0,0.,24.0,0.,24.0
1979-07-31 00:33:06.900 ,2,1,0.,24.0,0.,24.0
1979-07-31 00:33:30.900 ,2,0,0.,24.0,0.,24.0
1979-07-31 00:33:54.900 ,1,1,0.,24.0,0.,24.0
1979-07-31 00:34:18.900 ,1,0,0.,24.0,0.,24.0
1979-07-31 00:34:42.900 ,0,1,0.,24.0,0.,24.0
1979-07-31 00:35:06.900 ,0,0,0.,24.0,0.,24.0
1979-07-31 00:35:30.900 ,0,1,0.,24.0,0.,24.0
1979-07-31 00:35:54.900 ,0,0,0.,24.0,0.,24.0
1979-07-31 00:36:18.900 ,1,1,0.,24.0,0.,24.0
1979-07-31 00:36:42.900 ,1,0,0.,24.0,0.,24.0
1979-07-31 00:37:06.900 ,2,1,0.,24.0,0.,24.0
1979-07-31 00:37:30.900 ,2,0,0.,24.0,0.,24.0
1979-07-31 00:37:54.900 ,3,1,0.,24.0,0.,24.0
1979-07-31 00:38:18.900 ,3,0,0.,24.0,0.,24.0
1979-07-31 00:38:42.900 ,4,1,0.,24.0,0.,24.0
1979-07-31 00:39:06.900 ,4,0,0.,24.0,0.,24.0
1979-07-31 00:39:30.900 ,5,1,0.,24.0,0.,24.0
1979-07-31 00:39:54.900 ,5,0,0.,24.0,0.,24.0
1979-07-31 00:40:18.900 ,6,1,0.,24.0,0.,24.0
1979-07-31 00:40:42.900 ,6,0,0.,24.0,0.,24.0
1979-07-31 00:41:06.900 ,7,1,0.,24.0,0.,24.0
1979-07-31 00:41:30.900 ,7,0,0.,24.0,0.,24.0
1979-07-31 00:41:54.900 ,7,1,0.,24.0,0.,24.0
1979-07-31 00:42:18.900 ,7,0,0.,24.0,0.,24.0
1979-07-31 00:42:42.900 ,6,1,0.,24.0,0.,24.0
1979-07-31 00:43:06.900 ,6,0,0.,24.0,0.,24.0
1979-07-31 00:43:30.900 ,5,1,0.,24.0,0.,24.0
1979-07-31 00:43:54.900 ,5,0,0.,24.0,0.,24.0
1979-07-31 00:44:18.900 ,4,1,0.,24.0,0.,24.0
1979-07-31 00:44:42.900 ,4,0,0.,24.0,0.,24.0
1979-07-31 00:45:06.900 ,3,1,0.,24.0,0.,24.0
1979-07-31 00:45:30.900 ,3,0,0.,24.0,0.,24.0
1979-07-31 00:45:54.900 ,2,1,0.,24.0,0.,24.0
1979-07-31 00:46:18.900 ,2,0,0.,24.0,0.,24.0
1979-07-31 00:46:42.900 ,1,1,0.,24.0,0.,24.0
1979-07-31 00:47:06.900 ,1,0,0.,24.0,0.,24.0
1979-07-31 00:47:30.900 ,0,1,0.,24.0,0.,24.0
1979-07-31 00:47:54.900 ,0,0,0.,24.0,0.,24.0
1979-07-31 00:48:18.900 ,0,1,0.,24.0,0.,24.0
1979-07-31 00:48:42.900 ,0,0,0.,24.0,0.,24.0
1979-07-31 00:49:06.900 ,1,1,0.,24.0,0.,24.0
1979-07-31 00:49:30.900 ,1,0,0.,24.0,0.,24.0
1979-07-31 00:49:54.900 ,2,1,0.,24.0,0.,24.0
1979-07-31 00:50:18.900 ,2,0,0.,24.0,0.,24.0
1979-07-31 00:50:42.900 ,3,1,0.,24.0,0.,24.0
1979-07-31 00:51:06.900 ,3,0,0.,24.0,0.,24.0
1979-07-31 00:51:30.900 ,4,1,0.,24.0,0.,24.0
1979-07-31 00:51:54.900 ,4,0,0.,24.0,0.,24.0
1979-07-31 00:52:18.900 ,5,1,0.,24.0,0.,24.0
1979-07-31 00:52:42.900 ,5,0,0.,24.0,0.,24.0
1979-07-31 00:53:06.900 ,6,1,0.,24.0,0.,24.0
1979-07-31 00:53:30.900 ,6,0,0.,24.0,0.,24.0
1979-07-31 00:53:54.900 ,7,1,0.,24.0,0.,24.0
1979-07-31 00:54:18.900 ,7,0,0.,24.0,0.,24.0
1979-07-31 00:54:42.900 ,7,1,0.,24.0,0.,24.0
1979-07-31 00:55:06.900 ,7,0,0.,24.0,0.,24.0
1979-07-31 00:55:30.900 ,6,1,0.,24.0,0.,24.0
1979-07-31 00:55:54.900 ,6,0,0.,24.0,0.,24.0
1979-07-31 00:56:18.900 ,5,1,0.,24.0,0.,24.0
1979-07-31 00:56:42.900 ,5,0,0.,24.0,0.,24.0
1979-07-31 00:57:06.900 ,4,1,0.,24.0,0.,24.0
1979-07-31 00:57:30.900 ,4,0,0.,24.0,0.,24.0
1979-07-31 00:57:54.900 ,3,1,0.,24.0,0.,24.0
1979-07-31 00:58:18.900 ,3,0,0.,24.0,0.,24.0
1979-07-31 00:58:42.900 ,2,1,0.,24.0,0.,24.0
1979-07-31 00:59:06.900 ,2,0,0.,24.0,0.,24.0
1979-07-31 00:59:30.900 ,1,1,0.,24.0,0.,24.0
1979-07-31 00:59:54.900 ,1,0,0.,24.0,0.,24.0
1979-07-31 01:00:18.900 ,0,1,0.,24.0,0.,24.0
1979-07-31 01:00:42.900 ,0,0,0.,24.0,0.,24.0
1979-07-31 01:01:06.900 ,0,1,0.,24.0,0.,24.0
1979-07-31 01:01:30.900 ,0,0,0.,24.0,0.,24.0
1979-07-31 01:01:54.900 ,1,1,0.,24.0,0.,24.0
1979-07-31 01:02:18.900 ,1,0,0.,24.0,0.,24.0
1979-07-31 01:02:42.900 ,2,1,0.,24.0,0.,24.0
1979-07-31 01:03:06.900 ,2,0,0.,24.0,0.,24.0
1979-07-31 01:03:30.900 ,3,1,0.,24.0,0.,24.0
1979-07-31 01:03:54.900 ,3,0,0.,24.0,0.,24.0
1979-07-31 01:04:18.900 ,4,1,0.,24.0,0.,24.0
1979-07-31 01:04:42.900 ,4,0,0.,24.0,0.,24.0
1979-07-31 01:05:06.900 ,5,1,0.,24.0,0.,24.0
1979-07-31 01:05:30.900 ,5,0,0.,24.0,0.,24.0
1979-07-31 01:05:54.900 ,6,1,0.,24.0,0.,24.0
1979-07-31 01:06:18.900 ,6,0,0.,24.0,0.,24.0
1979-07-31 01:06:42.900 ,7,0,0.,24.0,0.,24.0
1979-07-31 01:07:06.900 ,7,0,0.,24.0,0.,24.0
1979-07-31 01:07:30.900 ,3,1,0.,24.0,0.,24.0
1979-07-31 01:07:54.900 ,0,1,0.,24.0,0.,24.0
1979-07-31 01:08:18.900 ,4,1,0.,24.0,0.,24.0
1979-07-31 01:08:42.900 ,7,1,0.,24.0,0.,24.0
1979-07-31 01:09:06.900 ,3,1,0.,24.0,0.,24.0
1979-07-31 01:09:30.900 ,0,1,0.,24.0,0.,24.0
1979-07-31 01:09:54.900 ,4,1,0.,24.0,0.,24.0
1979-07-31 01:10:18.900 ,7,1,0.,24.0,0.,24.0
1979-07-31 01:10:42.900 ,3,1,0.,24.0,0.,24.0
1979-07-31 01:11:06.900 ,0,1,0.,24.0,0.,24.0
1979-07-31 01:11:30.900 ,4,1,0.,24.0,0.,24.0
1979-07-31 01:11:54.900 ,7,1,0.,24.0,0.,24.0
1979-07-31 01:12:18.900 ,3,1,0.,24.0,0.,24.0
1979-07-31 01:12:42.900 ,0,1,0.,24.0,0.,24.0
1979-07-31 01:13:06.900 ,4,1,0.,24.0,0.,24.0
1979-07-31 01:13:30.900 ,7,1,0.,24.0,0.,24.0
1979-07-31 01:13:54.900 ,3,1,0.,24.0,0.,24.0
1979-07-31 01:14:18.900 ,0,1,0.,24.0,0.,24.0
1979-07-31 01:14:42.900 ,4,1,0.,24.0,0.,24.0
1979-07-31 01:15:06.900 ,7,1,0.,24.0,0.,24.0
1979-07-31 01:15:30.900 ,3,1,0.,24.0,0.,24.0
1979-07-31 01:15:54.900 ,0,1,0.,24.0,0.,24.0
1979-07-31 01:16:18.900 ,4,1,0.,24.0,0.,24.0
1979-07-31 01:16:42.900 ,7,1,0.,24.0,0.,24.0
1979-07-31 01:17:06.900 ,3,1,0.,24.0,0.,24.0
1979-07-31 01:17:30.900 ,0,1,0.,24.0,0.,24.0
1979-07-31 01:17:54.900 ,0,0,0.,24.0,0.,24.0
1979-07-31 01:18:18.900 ,0,0,0.,24.0,0.,24.0
1979-07-31 01:18:42.900 ,5,1,0.,24.0,0.,24.0
1979-07-31 01:19:06.900 ,5,0,0.,24.0,0.,24.0
1979-07-31 01:19:30.900 ,4,1,0.,24.0,0.,24.0
1979-07-31 01:19:54.900 ,4,0,0.,24.0,0.,24.0
1979-07-31 01:20:18.900 ,3,1,0.,24.0,0.,24.0
1979-07-31 01:20:42.900 ,3,0,0.,24.0,0.,24.0
1979-07-31 01:21:06.900 ,2,1,0.,24.0,0.,24.0
1979-07-31 01:21:30.900 ,2,0,0.,24.0,0.,24.0
1979-07-31 01:21:54.900 ,1,1,0.,24.0,0.,24.0
1979-07-31 01:22:18.900 ,1,0,0.,24.0,0.,24.0
1979-07-31 01:22:42.900 ,0,1,0.,24.0,0.,24.0
1979-07-31 01:23:06.900 ,0,0,0.,24.0,0.,24.0
1979-07-31 01:23:30.900 ,0,1,0.,24.0,0.,24.0
1979-07-31 01:23:54.900 ,0,0,0.,24.0,0.,24.0
1979-07-31 01:24:18.900 ,1,1,0.,24.0,0.,24.0
1979-07-31 01:24:42.900 ,1,0,0.,24.0,0.,24.0
1979-07-31 01:25:06.900 ,2,1,0.,24.0,0.,24.0
1979-07-31 01:25:30.900 ,2,0,0.,24.0,0.,24.0
1979-07-31 01:25:54.900 ,3,1,0.,24.0,0.,24.0
1979-07-31 01:26:18.900 ,3,0,0.,24.0,0.,24.0
1979-07-31 01:26:42.900 ,4,1,0.,24.0,0.,24.0
1979-07-31 01:27:06.900 ,4,0,0.,24.0,0.,24.0
1979-07-31 01:27:30.900 ,5,1,0.,24.0,0.,24.0
1979-07-31 01:27:54.900 ,5,0,0.,24.0,0.,24.0
1979-07-31 01:28:18.900 ,6,1,0.,24.0,0.,24.0
1979-07-31 01:28:42.900 ,6,0,0.,24.0,0.,24.0
1979-07-31 01:29:06.900 ,7,1,0.,24.0,0.,24.0
1979-07-31 01:29:30.900 ,7,0,0.,24.0,0.,24.0
1979-07-31 01:29:54.900 ,7,1,0.,24.0,0.,24.0
1979-07-31 01:30:18.900 ,7,0,0.,24.0,0.,24.0
1979-07-31 01:30:42.900 ,6,1,0.,24.0,0.,24.0
1979-07-31 01:31:06.900 ,6,0,0.,24.0,0.,24.0
1979-07-31 01:31:30.900 ,5,1,0.,24.0,0.,24.0
1979-07-31 01:31:54.900 ,5,0,0.,24.0,0.,24.0
1979-07-31 01:32:18.900 ,4,1,0.,24.0,0.,24.0
1979-07-31 01:32:42.900 ,4,0,0.,24.0,0.,24.0
1979-07-31 01:33:06.900 ,3,1,0.,24.0,0.,24.0
1979-07-31 01:33:30.900 ,3,0,0.,24.0,0.,24.0
1979-07-31 01:33:54.900 ,2,1,0.,24.0,0.,24.0
1979-07-31 01:34:18.900 ,2,0,0.,24.0,0.,24.0
1979-07-31 01:34:42.900 ,1,1,0.,24.0,0.,24.0
1979-07-31 01:35:06.900 ,1,0,0.,24.0,0.,24.0
1979-07-31 01:35:30.900 ,0,1,0.,24.0,0.,24.0
1979-07-31 01:35:54.900 ,0,0,0.,24.0,0.,24.0
1979-07-31 01:36:18.900 ,0,1,0.,24.0,0.,24.0
1979-07-31 01:36:42.900 ,0,0,0.,24.0,0.,24.0
1979-07-31 01:37:06.900 ,1,1,0.,24.0,0.,24.0
1979-07-31 01:37:30.900 ,1,0,0.,24.0,0.,24.0
1979-07-31 01:37:54.900 ,2,1,0.,24.0,0.,24.0
1979-07-31 01:38:18.900 ,2,0,0.,24.0,0.,24.0
1979-07-31 01:38:42.900 ,3,1,0.,24.0,0.,24.0
1979-07-31 01:39:06.900 ,3,0,0.,24.0,0.,24.0
1979-07-31 01:39:30.900 ,4,1,0.,24.0,0.,24.0
1979-07-31 01:39:54.900 ,4,0,0.,24.0,0.,24.0
1979-07-31 01:40:18.900 ,5,1,0.,24.0,0.,24.0
1979-07-31 01:40:42.900 ,5,0,0.,24.0,0.,24.0
1979-07-31 01:41:06.900 ,6,1,0.,24.0,0.,24.0
1979-07-31 01:41:30.900 ,6,0,0.,24.0,0.,24.0
1979-07-31 01:41:54.900 ,7,1,0.,24.0,0.,24.0
1979-07-31 01:42:18.900 ,7,0,0.,24.0,0.,24.0
1979-07-31 01:42:42.900 ,7,1,0.,24.0,0.,24.0
1979-07-31 01:43:06.900 ,7,0,0.,24.0,0.,24.0
1979-07-31 01:43:30.900 ,6,1,0.,24.0,0.,24.0
1979-07-31 01:43:54.900 ,6,0,0.,24.0,0.,24.0
1979-07-31 01:44:18.900 ,5,1,0.,24.0,0.,24.0
1979-07-31 01:44:42.900 ,5,0,0.,24.0,0.,24.0
1979-07-31 01:45:06.900 ,4,1,0.,24.0,0.,24.0
1979-07-31 01:45:30.900 ,4,0,0.,24.0,0.,24.0
1979-07-31 01:45:54.900 ,3,1,0.,24.0,0.,24.0
1979-07-31 01:46:18.900 ,3,0,0.,24.0,0.,24.0
1979-07-31 01:46:42.900 ,2,1,0.,24.0,0.,24.0
1979-07-31 01:47:06.900 ,2,0,0.,24.0,0.,24.0
